Tracking 19795 objects as of 20-Jul-2019
HD Live streaming from Space Station
objects crossing your sky now

FENGYUN 1C DEB

Track FENGYUN 1C DEB now!
10-day predictions


NORAD ID: 31038
Int'l Code: 1999-025BEG
Perigee: 704.8 km
Apogee: 838.9 km
Inclination: 99.0 °
Period: 100.1 minutes
Semi major axis: 7142 km
RCS: 0.0091 m2 (small)
Launch date: May 10, 1999
Source: People's Republic of China (PRC)
Launch site: Taiyaun Space Center, China (TSC)

Note: This is SATELLITE DEBRIS
aabbcc
Your satellite tracking list
Your tracking list is empty




NASA's NSSDC Master Catalog

Two Line Element Set (TLE):
1 31038U 99025BEG 19201.01511667  .00000105  00000-0  49166-4 0  9996
2 31038  99.0020 117.0944 0093863 279.6728  79.3865 14.38109736646199
Source of the keplerian elements: AFSPC